Year,Month,Day,Hour,Minute,Value (Times are PST for temperature in C)
2005,08,11,00,00,15.80
2005,08,11,00,01,15.80
2005,08,11,00,02,15.80
2005,08,11,00,03,15.70
2005,08,11,00,04,15.70
2005,08,11,00,05,15.80
2005,08,11,00,06,15.80
2005,08,11,00,07,15.80
2005,08,11,00,08,15.70
2005,08,11,00,09,15.70
2005,08,11,00,10,15.70
2005,08,11,00,11,15.60
2005,08,11,00,12,15.70
2005,08,11,00,13,15.70
2005,08,11,00,15,15.70
2005,08,11,00,17,15.60
2005,08,11,00,18,15.60
2005,08,11,00,19,15.60
2005,08,11,00,21,15.50
2005,08,11,00,22,15.50
2005,08,11,00,24,15.40
2005,08,11,00,25,15.40
2005,08,11,00,26,15.50
2005,08,11,00,27,15.40
2005,08,11,00,28,15.40
2005,08,11,00,29,15.40
2005,08,11,00,30,15.40
2005,08,11,00,31,15.30
2005,08,11,00,32,15.40
2005,08,11,00,33,15.40
2005,08,11,00,34,15.50
2005,08,11,00,35,15.50
2005,08,11,00,36,15.50
2005,08,11,00,37,15.40
2005,08,11,00,38,15.50
2005,08,11,00,39,15.50
2005,08,11,00,40,15.50
2005,08,11,00,41,15.50
2005,08,11,00,42,15.50
2005,08,11,00,43,15.50
2005,08,11,00,44,15.50
2005,08,11,00,45,15.50
2005,08,11,00,46,15.50
2005,08,11,00,47,15.50
2005,08,11,00,48,15.50
2005,08,11,00,49,15.50
2005,08,11,00,50,15.50
2005,08,11,00,51,15.50
2005,08,11,00,52,15.50
2005,08,11,00,53,15.60
2005,08,11,00,54,15.60
2005,08,11,00,55,15.60
2005,08,11,00,57,15.60
2005,08,11,00,58,15.70
2005,08,11,00,59,15.70
2005,08,11,01,01,15.80
2005,08,11,01,02,15.80
2005,08,11,01,03,15.80
2005,08,11,01,04,15.80
2005,08,11,01,05,15.80
2005,08,11,01,06,15.80
2005,08,11,01,07,15.90
2005,08,11,01,09,15.90
2005,08,11,01,10,15.90
2005,08,11,01,11,16.00
2005,08,11,01,12,16.10
2005,08,11,01,13,16.10
2005,08,11,01,14,16.10
2005,08,11,01,15,16.10
2005,08,11,01,16,16.10
2005,08,11,01,18,16.10
2005,08,11,01,19,16.10
2005,08,11,01,20,16.10
2005,08,11,01,21,16.10
2005,08,11,01,23,16.10
2005,08,11,01,24,16.10
2005,08,11,01,25,16.10
2005,08,11,01,27,16.10
2005,08,11,01,28,16.10
2005,08,11,01,29,16.10
2005,08,11,01,31,16.10
2005,08,11,01,33,16.10
2005,08,11,01,35,16.10
2005,08,11,01,39,16.10
2005,08,11,01,44,16.20
2005,08,11,01,48,16.20
2005,08,11,01,49,16.20
2005,08,11,01,50,16.20
2005,08,11,01,51,16.20
2005,08,11,01,52,16.20
2005,08,11,01,53,16.20
2005,08,11,01,54,16.20
2005,08,11,01,55,16.10
2005,08,11,01,56,16.10
2005,08,11,01,57,16.10
2005,08,11,01,58,16.10
2005,08,11,01,59,16.10
2005,08,11,02,00,16.10
2005,08,11,02,01,16.10
2005,08,11,02,02,16.10
2005,08,11,02,03,16.10
2005,08,11,02,04,16.00
2005,08,11,02,05,16.10
2005,08,11,02,06,16.10
2005,08,11,02,07,16.10
2005,08,11,02,08,16.10
2005,08,11,02,09,16.00
2005,08,11,02,10,16.00
2005,08,11,02,11,16.10
2005,08,11,02,12,16.10
2005,08,11,02,13,16.10
2005,08,11,02,14,16.10
2005,08,11,02,15,16.10
2005,08,11,02,16,16.00
2005,08,11,02,17,16.10
2005,08,11,02,18,16.10
2005,08,11,02,19,16.10
2005,08,11,02,20,16.00
2005,08,11,02,21,16.10
2005,08,11,02,22,16.00
2005,08,11,02,23,16.00
2005,08,11,02,24,16.10
2005,08,11,02,25,16.10
2005,08,11,02,26,16.10
2005,08,11,02,27,16.00
2005,08,11,02,28,16.00
2005,08,11,02,29,15.90
2005,08,11,02,30,15.90
2005,08,11,02,31,15.90
2005,08,11,02,32,16.00
2005,08,11,02,33,16.00
2005,08,11,02,34,16.00
2005,08,11,02,35,15.90
2005,08,11,02,36,15.90
2005,08,11,02,37,15.90
2005,08,11,02,38,15.90
2005,08,11,02,39,15.90
2005,08,11,02,40,15.90
2005,08,11,02,41,15.90
2005,08,11,02,42,15.90
2005,08,11,02,43,15.90
2005,08,11,02,44,15.80
2005,08,11,02,45,15.80
2005,08,11,02,46,15.80
2005,08,11,02,47,15.80
2005,08,11,02,48,15.80
2005,08,11,02,49,15.80
2005,08,11,02,50,15.80
2005,08,11,02,51,15.80
2005,08,11,02,52,15.80
2005,08,11,02,53,15.80
2005,08,11,02,54,15.80
2005,08,11,02,55,15.80
2005,08,11,02,56,15.80
2005,08,11,02,57,15.80
2005,08,11,02,58,15.80
2005,08,11,02,59,15.80
2005,08,11,03,00,15.80
2005,08,11,03,01,15.80
2005,08,11,03,02,15.80
2005,08,11,03,03,15.80
2005,08,11,03,04,15.80
2005,08,11,03,05,15.80
2005,08,11,03,06,15.80
2005,08,11,03,07,15.80
2005,08,11,03,08,15.80
2005,08,11,03,09,15.80
2005,08,11,03,10,15.80
2005,08,11,03,11,15.80
2005,08,11,03,12,15.80
2005,08,11,03,13,15.80
2005,08,11,03,14,15.80
2005,08,11,03,15,15.80
2005,08,11,03,16,15.80
2005,08,11,03,17,15.80
2005,08,11,03,18,15.80
2005,08,11,03,19,15.80
2005,08,11,03,20,15.80
2005,08,11,03,21,15.80
2005,08,11,03,22,15.80
2005,08,11,03,23,15.80
2005,08,11,03,24,15.70
2005,08,11,03,25,15.70
2005,08,11,03,26,15.70
2005,08,11,03,27,15.70
2005,08,11,03,28,15.80
2005,08,11,03,29,15.80
2005,08,11,03,30,15.80
2005,08,11,03,31,15.80
2005,08,11,03,32,15.80
2005,08,11,03,33,15.80
2005,08,11,03,34,15.80
2005,08,11,03,35,15.80
2005,08,11,03,36,15.80
2005,08,11,03,37,15.80
2005,08,11,03,38,15.80
2005,08,11,03,39,15.80
2005,08,11,03,40,15.80
2005,08,11,03,41,15.90
2005,08,11,03,42,15.90
2005,08,11,03,43,15.80
2005,08,11,03,44,15.90
2005,08,11,03,45,15.80
2005,08,11,03,46,15.80
2005,08,11,03,47,15.80
2005,08,11,03,48,15.80
2005,08,11,03,49,15.80
2005,08,11,03,50,15.80
2005,08,11,03,51,15.80
2005,08,11,03,52,15.80
2005,08,11,03,53,15.80
2005,08,11,03,54,15.80
2005,08,11,03,55,15.90
2005,08,11,03,56,15.90
2005,08,11,03,57,15.90
2005,08,11,03,58,15.90
2005,08,11,03,59,15.90
2005,08,11,04,00,15.90
2005,08,11,04,01,15.90
2005,08,11,04,02,16.00
2005,08,11,04,03,15.90
2005,08,11,04,04,15.90
2005,08,11,04,05,15.80
2005,08,11,04,06,15.80
2005,08,11,04,07,15.80
2005,08,11,04,08,15.80
2005,08,11,04,09,15.80
2005,08,11,04,10,15.80
2005,08,11,04,11,15.80
2005,08,11,04,12,15.80
2005,08,11,04,13,15.80
2005,08,11,04,14,15.80
2005,08,11,04,15,15.80
2005,08,11,04,16,15.80
2005,08,11,04,17,15.80
2005,08,11,04,18,15.70
2005,08,11,04,19,15.70
2005,08,11,04,20,15.70
2005,08,11,04,21,15.70
2005,08,11,04,22,15.80
2005,08,11,04,23,15.80
2005,08,11,04,24,15.80
2005,08,11,04,25,15.80
2005,08,11,04,26,15.80
2005,08,11,04,27,15.70
2005,08,11,04,28,15.70
2005,08,11,04,29,15.70
2005,08,11,04,30,15.70
2005,08,11,04,31,15.70
2005,08,11,04,32,15.70
2005,08,11,04,33,15.70
2005,08,11,04,34,15.70
2005,08,11,04,35,15.70
2005,08,11,04,36,15.80
2005,08,11,04,37,15.80
2005,08,11,04,38,15.70
2005,08,11,04,39,15.60
2005,08,11,04,40,15.50
2005,08,11,04,41,15.50
2005,08,11,04,42,15.50
2005,08,11,04,43,15.50
2005,08,11,04,44,15.40
2005,08,11,04,45,15.40
2005,08,11,04,46,15.40
2005,08,11,04,47,15.40
2005,08,11,04,48,15.40
2005,08,11,04,49,15.50
2005,08,11,04,50,15.50
2005,08,11,04,51,15.40
2005,08,11,04,52,15.50
2005,08,11,04,53,15.50
2005,08,11,04,54,15.50
2005,08,11,04,55,15.50
2005,08,11,04,56,15.60
2005,08,11,04,57,15.50
2005,08,11,04,58,15.50
2005,08,11,04,59,15.50
2005,08,11,05,00,15.50
2005,08,11,05,01,15.50
2005,08,11,05,02,15.50
2005,08,11,05,03,15.60
2005,08,11,05,04,15.60
2005,08,11,05,05,15.60
2005,08,11,05,06,15.60
2005,08,11,05,07,15.50
2005,08,11,05,08,15.50
2005,08,11,05,09,15.50
2005,08,11,05,10,15.50
2005,08,11,05,11,15.50
2005,08,11,05,12,15.40
2005,08,11,05,13,15.40
2005,08,11,05,14,15.50
2005,08,11,05,15,15.50
2005,08,11,05,16,15.50
2005,08,11,05,17,15.60
2005,08,11,05,18,15.60
2005,08,11,05,19,15.60
2005,08,11,05,20,15.50
2005,08,11,05,21,15.50
2005,08,11,05,22,15.50
2005,08,11,05,23,15.60
2005,08,11,05,24,15.60
2005,08,11,05,25,15.60
2005,08,11,05,26,15.60
2005,08,11,05,27,15.60
2005,08,11,05,28,15.60
2005,08,11,05,29,15.60
2005,08,11,05,30,15.70
2005,08,11,05,31,15.70
2005,08,11,05,32,15.70
2005,08,11,05,33,15.70
2005,08,11,05,34,15.70
2005,08,11,05,35,15.70
2005,08,11,05,36,15.80
2005,08,11,05,37,15.80
2005,08,11,05,38,15.80
2005,08,11,05,39,15.80
2005,08,11,05,40,15.70
2005,08,11,05,41,15.80
2005,08,11,05,42,15.70
2005,08,11,05,43,15.80
2005,08,11,05,44,15.80
2005,08,11,05,45,15.70
2005,08,11,05,46,15.70
2005,08,11,05,47,15.70
2005,08,11,05,48,15.70
2005,08,11,05,49,15.70
2005,08,11,05,50,15.60
2005,08,11,05,51,15.60
2005,08,11,05,52,15.60
2005,08,11,05,53,15.60
2005,08,11,05,54,15.60
2005,08,11,05,55,15.70
2005,08,11,05,56,15.70
2005,08,11,05,57,15.70
2005,08,11,05,58,15.70
2005,08,11,05,59,15.70
2005,08,11,06,00,15.70
2005,08,11,06,01,15.70
2005,08,11,06,02,15.70
2005,08,11,06,03,15.80
2005,08,11,06,04,15.80
2005,08,11,06,05,15.70
2005,08,11,06,06,15.60
2005,08,11,06,07,15.60
2005,08,11,06,08,15.60
2005,08,11,06,09,15.60
2005,08,11,06,10,15.60
2005,08,11,06,11,15.60
2005,08,11,06,12,15.60
2005,08,11,06,13,15.60
2005,08,11,06,14,15.60
2005,08,11,06,15,15.60
2005,08,11,06,16,15.60
2005,08,11,06,17,15.60
2005,08,11,06,18,15.60
2005,08,11,06,19,15.60
2005,08,11,06,20,15.60
2005,08,11,06,21,15.60
2005,08,11,06,22,15.60
2005,08,11,06,23,15.60
2005,08,11,06,24,15.60
2005,08,11,06,25,15.60
2005,08,11,06,26,15.60
2005,08,11,06,27,15.70
2005,08,11,06,28,15.70
2005,08,11,06,29,15.80
2005,08,11,06,30,15.80
2005,08,11,06,31,15.80
2005,08,11,06,32,15.80
2005,08,11,06,33,15.80
2005,08,11,06,34,15.80
2005,08,11,06,35,15.80
2005,08,11,06,36,15.80
2005,08,11,06,37,15.80
2005,08,11,06,38,15.80
2005,08,11,06,39,15.80
2005,08,11,06,40,15.80
2005,08,11,06,41,15.70
2005,08,11,06,42,15.70
2005,08,11,06,43,15.70
2005,08,11,06,44,15.60
2005,08,11,06,45,15.60
2005,08,11,06,46,15.70
2005,08,11,06,47,15.70
2005,08,11,06,48,15.70
2005,08,11,06,49,15.80
2005,08,11,06,50,15.80
2005,08,11,06,51,15.80
2005,08,11,06,52,15.80
2005,08,11,06,53,15.80
2005,08,11,06,54,15.90
2005,08,11,06,55,15.90
2005,08,11,06,56,15.90
2005,08,11,06,57,15.90
2005,08,11,06,58,15.90
2005,08,11,06,59,15.90
2005,08,11,07,00,15.90
2005,08,11,07,01,15.90
2005,08,11,07,02,15.90
2005,08,11,07,03,15.90
2005,08,11,07,04,15.80
2005,08,11,07,05,15.80
2005,08,11,07,06,15.80
2005,08,11,07,07,15.80
2005,08,11,07,08,15.80
2005,08,11,07,09,15.80
2005,08,11,07,10,15.80
2005,08,11,07,11,15.80
2005,08,11,07,12,15.80
2005,08,11,07,13,15.80
2005,08,11,07,14,15.80
2005,08,11,07,15,15.90
2005,08,11,07,16,15.90
2005,08,11,07,17,15.90
2005,08,11,07,18,15.90
2005,08,11,07,19,16.00
2005,08,11,07,20,16.00
2005,08,11,07,21,16.10
2005,08,11,07,22,16.00
2005,08,11,07,23,16.00
2005,08,11,07,24,15.90
2005,08,11,07,25,15.90
2005,08,11,07,26,16.00
2005,08,11,07,27,16.10
2005,08,11,07,28,16.10
2005,08,11,07,29,16.10
2005,08,11,07,30,16.10
2005,08,11,07,31,16.10
2005,08,11,07,32,16.10
2005,08,11,07,33,16.10
2005,08,11,07,34,16.10
2005,08,11,07,35,16.10
2005,08,11,07,36,16.10
2005,08,11,07,37,16.10
2005,08,11,07,38,16.20
2005,08,11,07,39,16.20
2005,08,11,07,40,16.20
2005,08,11,07,41,16.20
2005,08,11,07,42,16.20
2005,08,11,07,43,16.30
2005,08,11,07,44,16.30
2005,08,11,07,45,16.30
2005,08,11,07,46,16.40
2005,08,11,07,47,16.50
2005,08,11,07,48,16.60
2005,08,11,07,49,16.60
2005,08,11,07,50,16.50
2005,08,11,07,51,16.60
2005,08,11,07,52,16.70
2005,08,11,07,53,16.70
2005,08,11,07,54,16.70
2005,08,11,07,55,16.70
2005,08,11,07,56,16.70
2005,08,11,07,57,16.70
2005,08,11,07,58,16.70
2005,08,11,07,59,16.70
2005,08,11,08,00,16.70
2005,08,11,08,01,16.70
2005,08,11,08,02,16.70
2005,08,11,08,03,16.70
2005,08,11,08,04,16.70
2005,08,11,08,05,16.80
2005,08,11,08,06,16.80
2005,08,11,08,07,16.80
2005,08,11,08,08,16.70
2005,08,11,08,09,16.70
2005,08,11,08,10,16.70
2005,08,11,08,11,16.70
2005,08,11,08,12,16.80
2005,08,11,08,13,16.80
2005,08,11,08,14,16.90
2005,08,11,08,15,16.90
2005,08,11,08,16,16.90
2005,08,11,08,17,16.90
2005,08,11,08,18,16.90
2005,08,11,08,19,17.00
2005,08,11,08,20,17.00
2005,08,11,08,21,17.00
2005,08,11,08,22,17.00
2005,08,11,08,23,17.00
2005,08,11,08,24,17.00
2005,08,11,08,25,17.10
2005,08,11,08,26,17.10
2005,08,11,08,27,17.10
2005,08,11,08,28,17.10
2005,08,11,08,29,17.20
2005,08,11,08,30,17.20
2005,08,11,08,31,17.20
2005,08,11,08,32,17.20
2005,08,11,08,33,17.20
2005,08,11,08,34,17.10
2005,08,11,08,35,17.10
2005,08,11,08,36,17.10
2005,08,11,08,37,17.10
2005,08,11,08,38,17.20
2005,08,11,08,39,17.20
2005,08,11,08,40,17.30
2005,08,11,08,41,17.30
2005,08,11,08,42,17.30
2005,08,11,08,43,17.40
2005,08,11,08,44,17.50
2005,08,11,08,45,17.50
2005,08,11,08,46,17.50
2005,08,11,08,47,17.50
2005,08,11,08,48,17.50
2005,08,11,08,49,17.50
2005,08,11,08,50,17.50
2005,08,11,08,51,17.50
2005,08,11,08,52,17.70
2005,08,11,08,53,17.80
2005,08,11,08,54,17.90
2005,08,11,08,55,17.80
2005,08,11,08,56,17.80
2005,08,11,08,57,17.80
2005,08,11,08,58,17.80
2005,08,11,08,59,17.90
2005,08,11,09,00,17.90
2005,08,11,09,01,17.90
2005,08,11,09,02,17.90
2005,08,11,09,03,17.80
2005,08,11,09,04,17.80
2005,08,11,09,05,17.80
2005,08,11,09,06,17.90
2005,08,11,09,07,18.00
2005,08,11,09,08,18.10
2005,08,11,09,09,18.10
2005,08,11,09,10,18.20
2005,08,11,09,11,18.20
2005,08,11,09,12,18.40
2005,08,11,09,13,18.50
2005,08,11,09,14,18.60
2005,08,11,09,15,18.80
2005,08,11,09,16,18.70
2005,08,11,09,17,18.60
2005,08,11,09,18,18.40
2005,08,11,09,19,18.40
2005,08,11,09,20,18.30
2005,08,11,09,21,18.20
2005,08,11,09,22,18.20
2005,08,11,09,23,18.10
2005,08,11,09,24,18.10
2005,08,11,09,25,17.90
2005,08,11,09,26,17.80
2005,08,11,09,27,17.70
2005,08,11,09,28,17.70
2005,08,11,09,29,17.50
2005,08,11,09,30,17.50
2005,08,11,09,31,17.40
2005,08,11,09,32,17.40
2005,08,11,09,33,17.30
2005,08,11,09,34,17.30
2005,08,11,09,35,17.30
2005,08,11,09,36,17.20
2005,08,11,09,37,17.20
2005,08,11,09,38,17.20
2005,08,11,09,39,17.20
2005,08,11,09,40,17.30
2005,08,11,09,41,17.40
2005,08,11,09,42,17.40
2005,08,11,09,43,17.40
2005,08,11,09,44,17.40
2005,08,11,09,45,17.30
2005,08,11,09,46,17.30
2005,08,11,09,47,17.30
2005,08,11,09,48,17.20
2005,08,11,09,49,17.10
2005,08,11,09,50,17.00
2005,08,11,09,51,16.90
2005,08,11,09,52,16.90
2005,08,11,09,53,16.90
2005,08,11,09,54,17.00
2005,08,11,09,55,17.00
2005,08,11,09,56,17.00
2005,08,11,09,57,17.00
2005,08,11,09,58,17.10
2005,08,11,09,59,17.10
2005,08,11,10,00,17.20
2005,08,11,10,01,17.30
2005,08,11,10,02,17.30
2005,08,11,10,03,17.40
2005,08,11,10,04,17.40
2005,08,11,10,05,17.40
2005,08,11,10,06,17.50
2005,08,11,10,07,17.50
2005,08,11,10,08,17.70
2005,08,11,10,09,17.80
2005,08,11,10,10,17.80
2005,08,11,10,11,17.90
2005,08,11,10,12,17.90
2005,08,11,10,13,17.90
2005,08,11,10,14,17.90
2005,08,11,10,15,18.00
2005,08,11,10,16,18.00
2005,08,11,10,17,18.10
2005,08,11,10,18,18.00
2005,08,11,10,19,17.90
2005,08,11,10,20,17.80
2005,08,11,10,21,17.90
2005,08,11,10,22,17.90
2005,08,11,10,23,17.90
2005,08,11,10,24,17.70
2005,08,11,10,25,17.60
2005,08,11,10,26,17.50
2005,08,11,10,27,17.50
2005,08,11,10,28,17.60
2005,08,11,10,29,17.50
2005,08,11,10,30,17.50
2005,08,11,10,31,17.50
2005,08,11,10,32,17.70
2005,08,11,10,33,17.60
2005,08,11,10,34,17.50
2005,08,11,10,35,17.60
2005,08,11,10,36,17.50
2005,08,11,10,37,17.70
2005,08,11,10,38,17.70
2005,08,11,10,39,17.70
2005,08,11,10,40,17.70
2005,08,11,10,41,17.70
2005,08,11,10,42,17.80
2005,08,11,10,43,17.90
2005,08,11,10,44,17.80
2005,08,11,10,45,17.80
2005,08,11,10,46,17.70
2005,08,11,10,47,17.50
2005,08,11,10,48,17.30
2005,08,11,10,49,17.20
2005,08,11,10,50,17.20
2005,08,11,10,51,17.20
2005,08,11,10,52,17.20
2005,08,11,10,53,17.20
2005,08,11,10,54,17.30
2005,08,11,10,55,17.30
2005,08,11,10,56,17.40
2005,08,11,10,57,17.40
2005,08,11,10,58,17.50
2005,08,11,10,59,17.50
2005,08,11,11,00,17.50
2005,08,11,11,01,17.60
2005,08,11,11,02,17.70
2005,08,11,11,03,17.70
2005,08,11,11,04,17.80
2005,08,11,11,05,17.90
2005,08,11,11,06,17.80
2005,08,11,11,07,17.70
2005,08,11,11,08,17.70
2005,08,11,11,09,17.60
2005,08,11,11,10,17.50
2005,08,11,11,11,17.50
2005,08,11,11,12,17.50
2005,08,11,11,13,17.50
2005,08,11,11,14,17.50
2005,08,11,11,15,17.60
2005,08,11,11,16,17.60
2005,08,11,11,17,17.70
2005,08,11,11,18,17.80
2005,08,11,11,19,17.90
2005,08,11,11,20,18.00
2005,08,11,11,21,18.30
2005,08,11,11,22,18.50
2005,08,11,11,23,18.50
2005,08,11,11,24,18.70
2005,08,11,11,25,18.90
2005,08,11,11,26,19.20
2005,08,11,11,27,19.40
2005,08,11,11,28,19.40
2005,08,11,11,29,19.50
2005,08,11,11,30,19.60
2005,08,11,11,31,19.70
2005,08,11,11,32,19.70
2005,08,11,11,33,19.90
2005,08,11,11,34,20.00
2005,08,11,11,35,20.20
2005,08,11,11,36,20.30
2005,08,11,11,37,20.20
2005,08,11,11,38,20.10
2005,08,11,11,39,19.90
2005,08,11,11,40,19.70
2005,08,11,11,41,19.40
2005,08,11,11,42,19.20
2005,08,11,11,43,19.10
2005,08,11,11,44,19.00
2005,08,11,11,45,18.90
2005,08,11,11,46,18.90
2005,08,11,11,47,18.90
2005,08,11,11,48,18.80
2005,08,11,11,49,18.80
2005,08,11,11,50,18.90
2005,08,11,11,51,19.10
2005,08,11,11,52,18.90
2005,08,11,11,53,18.90
2005,08,11,11,54,18.80
2005,08,11,11,55,18.70
2005,08,11,11,56,18.80
2005,08,11,11,57,18.80
2005,08,11,11,58,18.90
2005,08,11,11,59,18.90
2005,08,11,12,00,19.00
2005,08,11,12,01,19.10
2005,08,11,12,02,19.20
2005,08,11,12,03,19.40
2005,08,11,12,04,19.50
2005,08,11,12,05,19.50
2005,08,11,12,06,19.60
2005,08,11,12,07,19.60
2005,08,11,12,08,19.30
2005,08,11,12,09,19.20
2005,08,11,12,10,19.10
2005,08,11,12,11,19.10
2005,08,11,12,12,19.10
2005,08,11,12,13,19.00
2005,08,11,12,14,18.90
2005,08,11,12,15,19.10
2005,08,11,12,16,19.30
2005,08,11,12,17,19.30
2005,08,11,12,18,19.30
2005,08,11,12,19,19.40
2005,08,11,12,20,19.50
2005,08,11,12,21,19.60
2005,08,11,12,22,19.70
2005,08,11,12,23,19.70
2005,08,11,12,24,19.70
2005,08,11,12,25,19.70
2005,08,11,12,26,19.70
2005,08,11,12,27,19.80
2005,08,11,12,28,19.80
2005,08,11,12,29,19.90
2005,08,11,12,30,20.00
2005,08,11,12,31,20.20
2005,08,11,12,32,20.50
2005,08,11,12,33,20.60
2005,08,11,12,34,20.70
2005,08,11,12,35,20.40
2005,08,11,12,36,20.20
2005,08,11,12,37,20.20
2005,08,11,12,38,20.20
2005,08,11,12,39,20.00
2005,08,11,12,40,20.00
2005,08,11,12,41,20.10
2005,08,11,12,42,20.20
2005,08,11,12,43,20.30
2005,08,11,12,44,20.50
2005,08,11,12,45,20.40
2005,08,11,12,46,20.40
2005,08,11,12,47,20.30
2005,08,11,12,48,20.30
2005,08,11,12,49,20.30
2005,08,11,12,50,20.30
2005,08,11,12,51,20.30
2005,08,11,12,52,20.50
2005,08,11,12,53,20.60
2005,08,11,12,54,20.70
2005,08,11,12,55,20.80
2005,08,11,12,56,20.90
2005,08,11,12,57,20.90
2005,08,11,12,58,20.80
2005,08,11,12,59,20.80
2005,08,11,13,00,20.80
2005,08,11,13,01,21.00
2005,08,11,13,02,21.00
2005,08,11,13,03,20.90
2005,08,11,13,04,20.80
2005,08,11,13,05,20.70
2005,08,11,13,06,20.80
2005,08,11,13,07,20.60
2005,08,11,13,08,20.50
2005,08,11,13,09,20.50
2005,08,11,13,10,20.40
2005,08,11,13,11,20.30
2005,08,11,13,12,20.20
2005,08,11,13,13,20.40
2005,08,11,13,14,20.30
2005,08,11,13,15,20.20
2005,08,11,13,16,20.10
2005,08,11,13,17,20.00
2005,08,11,13,18,20.10
2005,08,11,13,19,20.00
2005,08,11,13,20,20.10
2005,08,11,13,21,20.20
2005,08,11,13,22,20.10
2005,08,11,13,23,19.90
2005,08,11,13,24,19.70
2005,08,11,13,25,19.70
2005,08,11,13,26,19.60
2005,08,11,13,27,19.70
2005,08,11,13,28,19.60
2005,08,11,13,29,19.60
2005,08,11,13,30,19.60
2005,08,11,13,31,19.70
2005,08,11,13,32,19.90
2005,08,11,13,33,20.10
2005,08,11,13,34,20.30
2005,08,11,13,35,20.50
2005,08,11,13,36,20.60
2005,08,11,13,37,20.70
2005,08,11,13,38,20.70
2005,08,11,13,39,20.70
2005,08,11,13,40,20.40
2005,08,11,13,41,20.40
2005,08,11,13,42,20.40
2005,08,11,13,43,20.40
2005,08,11,13,44,20.40
2005,08,11,13,45,20.40
2005,08,11,13,46,20.30
2005,08,11,13,47,20.20
2005,08,11,13,48,20.00
2005,08,11,13,49,19.90
2005,08,11,13,50,19.80
2005,08,11,13,51,19.70
2005,08,11,13,52,19.70
2005,08,11,13,53,19.70
2005,08,11,13,54,19.80
2005,08,11,13,55,19.90
2005,08,11,13,56,20.00
2005,08,11,13,57,20.10
2005,08,11,13,58,20.10
2005,08,11,13,59,20.00
2005,08,11,14,00,19.90
2005,08,11,14,01,19.80
2005,08,11,14,02,19.60
2005,08,11,14,03,19.60
2005,08,11,14,04,19.50
2005,08,11,14,05,19.50
2005,08,11,14,06,19.50
2005,08,11,14,07,19.50
2005,08,11,14,08,19.50
2005,08,11,14,09,19.50
2005,08,11,14,10,19.60
2005,08,11,14,11,19.60
2005,08,11,14,12,19.70
2005,08,11,14,13,19.70
2005,08,11,14,14,19.80
2005,08,11,14,15,19.90
2005,08,11,14,16,19.90
2005,08,11,14,17,19.90
2005,08,11,14,18,19.90
2005,08,11,14,19,19.90
2005,08,11,14,20,20.00
2005,08,11,14,21,20.20
2005,08,11,14,22,20.20
2005,08,11,14,23,20.20
2005,08,11,14,24,20.20
2005,08,11,14,25,20.20
2005,08,11,14,26,20.30
2005,08,11,14,27,20.50
2005,08,11,14,28,20.60
2005,08,11,14,29,20.50
2005,08,11,14,30,20.50
2005,08,11,14,31,20.60
2005,08,11,14,32,20.70
2005,08,11,14,33,20.70
2005,08,11,14,34,20.90
2005,08,11,14,35,20.90
2005,08,11,14,36,20.90
2005,08,11,14,37,20.90
2005,08,11,14,38,20.80
2005,08,11,14,39,20.50
2005,08,11,14,40,20.30
2005,08,11,14,41,20.30
2005,08,11,14,42,20.30
2005,08,11,14,43,20.30
2005,08,11,14,44,20.40
2005,08,11,14,45,20.50
2005,08,11,14,46,20.50
2005,08,11,14,47,20.50
2005,08,11,14,48,20.50
2005,08,11,14,49,20.40
2005,08,11,14,50,20.40
2005,08,11,14,51,20.40
2005,08,11,14,52,20.40
2005,08,11,14,53,20.40
2005,08,11,14,54,20.60
2005,08,11,14,55,20.80
2005,08,11,14,56,21.20
2005,08,11,14,57,21.40
2005,08,11,14,58,21.30
2005,08,11,14,59,21.10
2005,08,11,15,00,20.90
2005,08,11,15,01,20.90
2005,08,11,15,02,21.20
2005,08,11,15,03,21.20
2005,08,11,15,04,20.90
2005,08,11,15,05,20.80
2005,08,11,15,06,21.00
2005,08,11,15,07,21.20
2005,08,11,15,08,21.40
2005,08,11,15,09,21.60
2005,08,11,15,10,21.90
2005,08,11,15,11,22.00
2005,08,11,15,12,21.90
2005,08,11,15,13,22.00
2005,08,11,15,14,21.80
2005,08,11,15,15,22.00
2005,08,11,15,16,22.10
2005,08,11,15,17,22.60
2005,08,11,15,18,22.70
2005,08,11,15,19,22.80
2005,08,11,15,20,22.80
2005,08,11,15,21,22.70
2005,08,11,15,23,22.90
2005,08,11,15,24,23.30
2005,08,11,15,25,23.50
2005,08,11,15,26,23.70
2005,08,11,15,27,23.90
2005,08,11,15,28,23.90
2005,08,11,15,29,24.00
2005,08,11,15,30,23.80
2005,08,11,15,31,23.70
2005,08,11,15,32,23.70
2005,08,11,15,33,23.70
2005,08,11,15,34,23.70
2005,08,11,15,35,23.30
2005,08,11,15,36,23.50
2005,08,11,15,37,23.50
2005,08,11,15,38,23.50
2005,08,11,15,39,23.40
2005,08,11,15,40,23.20
2005,08,11,15,41,23.50
2005,08,11,15,42,23.60
2005,08,11,15,43,23.60
2005,08,11,15,44,23.50
2005,08,11,15,45,23.60
2005,08,11,15,46,23.60
2005,08,11,15,47,23.40
2005,08,11,15,48,23.10
2005,08,11,15,49,23.00
2005,08,11,15,50,23.10
2005,08,11,15,51,23.20
2005,08,11,15,52,23.20
2005,08,11,15,53,23.10
2005,08,11,15,54,23.20
2005,08,11,15,55,23.30
2005,08,11,15,56,23.20
2005,08,11,15,57,22.90
2005,08,11,15,58,22.90
2005,08,11,15,59,22.60
2005,08,11,16,00,22.10
2005,08,11,16,01,21.80
2005,08,11,16,02,21.80
2005,08,11,16,03,21.80
2005,08,11,16,04,22.00
2005,08,11,16,05,21.70
2005,08,11,16,06,21.70
2005,08,11,16,07,21.80
2005,08,11,16,08,21.90
2005,08,11,16,09,22.00
2005,08,11,16,10,22.20
2005,08,11,16,12,22.60
2005,08,11,16,13,22.70
2005,08,11,16,15,22.70
2005,08,11,16,16,22.70
2005,08,11,16,17,22.90
2005,08,11,16,18,22.80
2005,08,11,16,19,22.90
2005,08,11,16,20,22.60
2005,08,11,16,21,22.30
2005,08,11,16,22,22.10
2005,08,11,16,23,21.90
2005,08,11,16,24,22.00
2005,08,11,16,25,21.90
2005,08,11,16,26,21.70
2005,08,11,16,27,21.40
2005,08,11,16,28,21.20
2005,08,11,16,29,21.10
2005,08,11,16,30,21.00
2005,08,11,16,31,21.10
2005,08,11,16,32,21.00
2005,08,11,16,33,21.10
2005,08,11,16,34,21.30
2005,08,11,16,35,21.50
2005,08,11,16,36,21.70
2005,08,11,16,37,21.70
2005,08,11,16,38,21.70
2005,08,11,16,39,21.80
2005,08,11,16,40,21.90
2005,08,11,16,41,21.90
2005,08,11,16,42,21.80
2005,08,11,16,43,21.70
2005,08,11,16,44,21.60
2005,08,11,16,45,21.60
2005,08,11,16,46,21.70
2005,08,11,16,47,21.70
2005,08,11,16,48,21.80
2005,08,11,16,49,21.70
2005,08,11,16,50,21.70
2005,08,11,16,51,21.70
2005,08,11,16,52,21.70
2005,08,11,16,53,21.70
2005,08,11,16,54,21.70
2005,08,11,16,55,21.70
2005,08,11,16,56,21.70
2005,08,11,16,57,21.70
2005,08,11,16,58,21.60
2005,08,11,16,59,21.60
2005,08,11,17,00,21.70
2005,08,11,17,01,21.60
2005,08,11,17,02,21.50
2005,08,11,17,03,21.50
2005,08,11,17,04,21.50
2005,08,11,17,05,21.50
2005,08,11,17,06,21.50
2005,08,11,17,07,21.70
2005,08,11,17,08,21.80
2005,08,11,17,09,21.80
2005,08,11,17,10,21.90
2005,08,11,17,11,22.10
2005,08,11,17,12,22.20
2005,08,11,17,13,22.30
2005,08,11,17,14,22.30
2005,08,11,17,15,22.60
2005,08,11,17,16,22.60
2005,08,11,17,17,22.50
2005,08,11,17,18,22.50
2005,08,11,17,19,22.30
2005,08,11,17,20,22.20
2005,08,11,17,21,22.30
2005,08,11,17,22,22.30
2005,08,11,17,23,22.40
2005,08,11,17,24,22.50
2005,08,11,17,25,22.60
2005,08,11,17,26,22.50
2005,08,11,17,27,22.60
2005,08,11,17,28,22.70
2005,08,11,17,29,22.70
2005,08,11,17,30,22.60
2005,08,11,17,31,22.50
2005,08,11,17,32,22.50
2005,08,11,17,33,22.50
2005,08,11,17,34,22.50
2005,08,11,17,35,22.30
2005,08,11,17,36,22.10
2005,08,11,17,37,22.20
2005,08,11,17,38,22.20
2005,08,11,17,39,22.30
2005,08,11,17,40,22.30
2005,08,11,17,41,22.30
2005,08,11,17,42,22.00
2005,08,11,17,43,21.70
2005,08,11,17,44,21.50
2005,08,11,17,45,21.60